Weather History for Omaha, NE

Change the Weather History Date:

Wednesday, December 4, 2013

  Actual Average Record
Temperature  
Mean Temperature 26 °F 29 °F  
Max Temperature 35 °F 39 °F 66 °F (1998)
Min Temperature 16 °F 20 °F -11 °F (1871)
Degree Days  
Heating Degree Days 39 36  
Month to date heating degree days 119 140  
Since 1 July heating degree days 1345 1410  
Cooling Degree Days 0 0  
Month to date cooling degree days 0 0  
Year to date cooling degree days 1294 1113  
Moisture  
Dew Point 18 °F    
Average Humidity 79    
Maximum Humidity 96    
Minimum Humidity 62    
Precipitation  
Precipitation 0.01 in 0.04 in 0.83 in (1879)
Month to date precipitation 0.01 0.16  
Year to date precipitation 28.81 29.74  
Snow  
Snow T in 0.20 in - ()
Month to date snowfall T 0.7  
Since 1 July snowfall 0.4 3.5  
Snow Depth 0.00 in    
Sea Level Pressure  
Sea Level Pressure 29.79 in    
Wind  
Wind Speed 18 mph (NW)    
Max Wind Speed 26 mph    
Max Gust Speed 33 mph    
Visibility 6 miles    
Events Rain , Snow    
T = Trace of Precipitation, MM = Missing Value Source: NWS Daily Summary

Daily Weather History Graph

Daily Weather History Graph

Search for Another Location

Airport:

Trip Planner

Search our weather history database for the weather conditions in past years. The results will help you decide how hot, cold, wet, or windy it might be!

Date:

Astronomy

Dec. 04, 2013 Rise Set
Actual Time 7:33 AM CST 4:54 PM CST
Civil Twilight 7:02 AM CST 5:25 PM CST
Nautical Twilight 6:27 AM CST 5:59 PM CST
Astronomical Twilight 5:54 AM CST 6:33 PM CST
Moon 9:01 AM CST (12/4) 7:06 PM CST (12/4)
Length of Visible Light 10h 22m
Length of Day
9h 21m
Waxing Crescent, 4% of the Moon is Illuminated
Dec 4
Waxing Crescent
Dec 9
First Quarter
Dec 17
Full
Dec 25
Last Quarter
Jan 1
New

Hourly Weather History & Observations

Time (CST) Temp. Windchill Dew Point Humidity Pressure Visibility Wind Dir Wind Speed Gust Speed Precip Events Conditions
12:37 AM 35.1 °F 27.9 °F 33.1 °F 92% 29.65 in 2.5 mi North 9.2 mph - N/A   Overcast
12:52 AM 35.1 °F 26.9 °F 33.1 °F 92% 29.67 in 1.5 mi NNW 11.5 mph - 0.00 in   Light Drizzle
1:33 AM 34.0 °F 25.0 °F 32.0 °F 92% 29.66 in 1.5 mi NNW 12.7 mph - 0.00 in   Light Drizzle
1:52 AM 34.0 °F 23.4 °F 32.0 °F 92% 29.68 in 2.0 mi NNW 17.3 mph - 0.00 in   Light Drizzle
2:19 AM 33.1 °F 23.4 °F 30.9 °F 92% 29.66 in 2.0 mi NNW 13.8 mph - 0.00 in   Light Drizzle
2:52 AM 33.1 °F 22.6 °F 30.9 °F 92% 29.68 in 2.0 mi North 16.1 mph - 0.00 in   Light Drizzle
3:52 AM 32.0 °F 22.1 °F 30.0 °F 92% 29.66 in 2.0 mi NNW 13.8 mph - 0.00 in   Light Drizzle
4:21 AM 30.9 °F 19.4 °F 28.9 °F 92% 29.63 in 2.0 mi NNW 17.3 mph 23.0 mph 0.00 in   Light Freezing Drizzle
4:52 AM 28.9 °F 16.9 °F 28.0 °F 96% 29.68 in 2.5 mi NNW 17.3 mph - 0.00 in   Light Freezing Drizzle
5:07 AM 28.9 °F 15.8 °F 27.0 °F 92% 29.65 in 2.5 mi NNW 20.7 mph 25.3 mph 0.00 in Rain Light Freezing Rain
5:52 AM 26.1 °F 12.3 °F 24.1 °F 92% 29.70 in 2.5 mi NNW 19.6 mph 25.3 mph 0.00 in Rain Light Freezing Rain
6:19 AM 26.1 °F 13.1 °F 23.0 °F 88% 29.66 in 3.0 mi NNW 17.3 mph - 0.01 in   Light Freezing Drizzle
6:52 AM 24.1 °F 11.5 °F 21.9 °F 91% 29.69 in 4.0 mi NNW 15.0 mph - 0.01 in   Light Freezing Drizzle
7:29 AM 24.1 °F 12.5 °F 21.9 °F 91% 29.65 in 5.0 mi NNW 12.7 mph - 0.00 in   Overcast
7:52 AM 24.1 °F 11.5 °F 21.9 °F 91% 29.68 in 5.0 mi NNW 15.0 mph - 0.00 in   Overcast
8:52 AM 24.1 °F 13.7 °F 21.9 °F 91% 29.69 in 5.0 mi NNW 10.4 mph - 0.00 in   Light Freezing Drizzle
9:45 AM 23.0 °F 9.2 °F 19.0 °F 85% 29.72 in 6.0 mi NW 17.3 mph - 0.00 in   Overcast
9:52 AM 23.0 °F 8.3 °F 19.0 °F 85% 29.75 in 6.0 mi NW 19.6 mph - 0.00 in Snow Light Snow
10:03 AM 21.9 °F 7.3 °F 19.0 °F 89% 29.71 in 4.0 mi NW 18.4 mph - 0.00 in Snow Light Freezing Drizzle
10:36 AM 21.9 °F 6.2 °F 18.0 °F 85% 29.72 in 6.0 mi NW 21.9 mph 27.6 mph 0.00 in   Overcast
10:52 AM 21.9 °F 7.3 °F 18.0 °F 85% 29.75 in 7.0 mi NW 18.4 mph - 0.00 in   Overcast
11:52 AM 21.0 °F 6.6 °F 17.1 °F 85% 29.73 in 7.0 mi NW 17.3 mph 29.9 mph N/A   Overcast
12:42 PM 21.0 °F 7.1 °F 16.0 °F 81% 29.70 in 8.0 mi NW 16.1 mph 26.5 mph N/A   Overcast
12:52 PM 21.0 °F 6.6 °F 16.0 °F 81% 29.73 in 10.0 mi NW 17.3 mph - N/A   Overcast
1:10 PM 21.0 °F 5.7 °F 16.0 °F 81% 29.71 in 10.0 mi NW 19.6 mph 26.5 mph N/A   Overcast
1:52 PM 21.0 °F 5.4 °F 16.0 °F 81% 29.76 in 10.0 mi WNW 20.7 mph 26.5 mph N/A   Overcast
2:52 PM 21.0 °F 5.7 °F 15.1 °F 78% 29.77 in 10.0 mi NW 19.6 mph 24.2 mph N/A   Overcast
3:52 PM 21.0 °F 5.7 °F 14.0 °F 74% 29.82 in 10.0 mi NW 19.6 mph 27.6 mph N/A   Overcast
4:41 PM 21.0 °F 6.2 °F 12.9 °F 71% 29.81 in 10.0 mi WNW 18.4 mph 27.6 mph N/A   Overcast
4:52 PM 21.0 °F 3.9 °F 12.0 °F 68% 29.86 in 10.0 mi WNW 25.3 mph 29.9 mph N/A   Overcast
5:52 PM 19.9 °F 3.2 °F 10.9 °F 68% 29.90 in 10.0 mi WNW 23.0 mph 32.2 mph N/A   Overcast
6:26 PM 19.0 °F 3.6 °F 10.0 °F 68% 29.88 in 10.0 mi NW 18.4 mph 26.5 mph N/A   Overcast
6:52 PM 19.0 °F 5.0 °F 9.0 °F 65% 29.93 in 10.0 mi NW 15.0 mph 26.5 mph N/A   Overcast
7:52 PM 17.1 °F -1.0 °F 8.1 °F 68% 29.96 in 9.0 mi NW 24.2 mph 29.9 mph 0.00 in   Overcast
8:33 PM 17.1 °F 1.5 °F 7.0 °F 65% 29.94 in 10.0 mi NW 17.3 mph - N/A   Mostly Cloudy
8:52 PM 17.1 °F 4.3 °F 8.1 °F 68% 30.00 in 9.0 mi WNW 11.5 mph - 0.00 in Snow Light Snow
9:16 PM 17.1 °F 1.5 °F 8.1 °F 68% 29.97 in 9.0 mi WNW 17.3 mph - 0.00 in Snow Light Snow
9:31 PM 17.1 °F -0.3 °F 7.0 °F 65% 30.00 in 9.0 mi NW 21.9 mph 32.2 mph 0.00 in Snow Light Snow
9:52 PM 17.1 °F 1.0 °F 8.1 °F 68% 30.05 in 9.0 mi NW 18.4 mph 29.9 mph 0.00 in Snow Light Snow
10:28 PM 17.1 °F 1.5 °F 8.1 °F 68% 30.01 in 9.0 mi NW 17.3 mph 25.3 mph 0.00 in Snow Light Snow
10:52 PM 17.1 °F -0.6 °F 8.1 °F 68% 30.08 in 9.0 mi WNW 23.0 mph 28.8 mph 0.00 in Snow Light Snow
11:52 PM 17.1 °F 1.5 °F 6.1 °F 62% 30.12 in 9.0 mi NW 17.3 mph 28.8 mph 0.00 in Snow Light Snow